Regional Weather Roundup
Issued by NWS

Home | Current Version | Previous Version | Graphics & Text | Print | Product List | Glossary On
Versions: 1 2 3 4 5 6 7 8 9 10 11 12 13 14 15 16 17 18 19 20 21 22 23 24 25 26 27 28 29 30 31 32 33 34 35 36 37 38 39 40 41 42 43 44 45 46 47 48 49 50
135
ASUS43 KOAX 302110
RWRNE

WEATHER ROUNDUP FOR NEBRASKA
NATIONAL WEATHER SERVICE OMAHA NE
400 PM CDT THU MAR 30 2017

NOTES: SATELLITE DATA IS BEING USED TO AUGMENT CLOUD COVER ABOVE
       12000 FEET.
       "FAIR" INDICATES FEW OR NO CLOUDS BELOW 12,000 FEET WITH NO
       SIGNIFICANT WEATHER AND/OR OBSTRUCTIONS TO VISIBILITY.

  * THESE STATIONS DO NOT REPORT WEATHER SUCH AS RAIN...SNOW OR FOG.

NEZ001>004-019>022-054>056-302200-
NEBRASKA PANHANDLE

CITY           SKY/WX    TMP DP  RH WIND       PRES   REMARKS
SCOTTSBLUFF    MOSUNNY   58  39  49 E9        29.68F
ALLIANCE       SUNNY     54  35  48 SE8       29.70F
CHADRON        SUNNY     59  39  47 VRB7      29.69F
KIMBALL        CLOUDY    59  41  51 NE6       29.68F
SIDNEY         SUNNY     57  39  51 E10       29.70F
$$

NEZ057>060-069>072-079>082-302200-
SOUTHWEST NEBRASKA

CITY           SKY/WX    TMP DP  RH WIND       PRES   REMARKS
NORTH PLATTE   SUNNY     51  36  56 MISG      29.74F
IMPERIAL       SUNNY     57  34  41 CALM      29.72F
LEXINGTON      CLOUDY    42  37  80 N9        29.77S
MCCOOK         MOSUNNY   49  38  65 S6        29.74F
OGALLALA       PTSUNNY   56  35  44 E7        29.72F
$$

NEZ005>010-023>029-035>040-094-302200-
NORTH CENTRAL NEBRASKA

CITY           SKY/WX    TMP DP  RH WIND       PRES   REMARKS
VALENTINE      CLOUDY    45  34  65 VRB6      29.78F
AINSWORTH      CLOUDY    42  35  75 CALM      29.78S
BROKEN BOW     CLOUDY    43  34  70 N9        29.76F
O`NEILL        CLOUDY    43  37  78 N9        29.79S
ORD            CLOUDY    44  36  73 N14       29.76S
THEDFORD       MOSUNNY   47  37  67 NE8       29.76F
$$

NEZ041-046>049-061>064-073>077-083>087-302200-
SOUTH CENTRAL NEBRASKA

CITY           SKY/WX    TMP DP  RH WIND       PRES   REMARKS
GRAND ISLAND   CLOUDY    43  38  82 N17       29.76R
AURORA         CLOUDY    42  39  90 N15       29.75R
HASTINGS       CLOUDY    44  38  79 N17       29.76R
HEBRON         CLOUDY    44  40  83 N16       29.72F
HOLDREGE       CLOUDY    45  37  74 N10       29.75F
KEARNEY *      CLOUDY    46  36  66 N15       29.76S
YORK           CLOUDY    41  41 100 N10G25    29.74S
$$

NEZ011>018-030>034-042>045-302200-
NORTHEAST NEBRASKA

CITY           SKY/WX    TMP DP  RH WIND       PRES   REMARKS
NORFOLK        CLOUDY    43  37  79 N14       29.75F
ALBION         CLOUDY    45  37  75 N12       29.76S
BLAIR          CLOUDY    44  40  86 N16G23    29.69S
FREMONT        CLOUDY    44  41  89 N10G16    29.73S
TEKAMAH        CLOUDY    45  39  81 N16       29.72F
WAYNE          CLOUDY    43  40  91 N13G20    29.76S
$$

NEZ050>053-065>068-078-088>093-302200-
SOUTHEAST NEBRASKA

CITY           SKY/WX    TMP DP  RH WIND       PRES   REMARKS
LINCOLN        CLOUDY    45  41  86 N15       29.73R
OMAHA EPPLEY   CLOUDY    44  38  79 N17       29.70S
BEATRICE       CLOUDY    45  42  91 N16       29.71S
FALLS CITY     CLOUDY    44  42  93 N10G22    29.66R
NEBRASKA CITY  CLOUDY    42  42 100 N14G21    29.68S
PLATTSMOUTH    CLOUDY    43  38  83 N12       29.68S
$$

NEZ044-045-051>053-067-302200-
OMAHA AREA

CITY           SKY/WX    TMP DP  RH WIND       PRES   REMARKS
OMAHA EPPLEY   CLOUDY    44  38  79 N17       29.70S
BLAIR          CLOUDY    44  40  86 N16G23    29.69S
FREMONT        CLOUDY    44  41  89 N10G16    29.73S
MILLARD        CLOUDY    47  41  82 N9        29.70S
OFFUTT AFB     CLOUDY    44  39  83 N8G18     29.69S
PLATTSMOUTH    CLOUDY    43  38  83 N12       29.68S
WAHOO          CLOUDY    44  40  86 N20       29.72R
$$




USA.gov is the U.S. government's official web portal to all federal, state and local government web resources and services.